Location: Amsterdam
(30.7274°N, 84.4357°W)
Time: 14:58:01
(UTC+00:00)

Vanguard 1 - Visible Passes

Search period start: 10 February 2026 00:00
Search period end: 20 February 2026 00:00
Orbit: 651 x 3820 km, 34.3° (Epoch: 10 February)

Date Brightness Start Highest point End Pass type
(mag) Time Alt. Az. Time Alt. Az. Time Alt. Az.
10 Feb 12.6 02:10:06 10° W 02:32:05 84° N 02:37:05 67° E visible
10 Feb 13.3 04:36:21 10° WNW 04:49:39 43° W 04:49:39 43° W visible
11 Feb 12.8 00:05:46 10° W 00:23:23 81° N 00:42:40 21° E visible
11 Feb 12.6 02:30:02 10° WNW 02:52:22 88° NNE 02:55:14 77° E visible
11 Feb 13.5 04:56:30 10° WNW 05:07:48 36° W 05:07:48 36° W visible
12 Feb 12.8 00:25:32 10° W 00:43:43 80° N 01:00:50 26° E visible
12 Feb 12.6 02:49:56 10° WNW 03:12:31 86° SSW 03:13:23 84° SSE visible
12 Feb 13.7 05:16:48 10° WNW 05:25:58 29° W 05:25:58 29° W visible
13 Feb 12.8 00:45:18 10° W 01:04:04 81° N 01:19:01 32° E visible
13 Feb 12.7 03:09:49 10° WNW 03:31:36 78° SW 03:31:36 78° SW visible
13 Feb 13.8 05:37:23 10° WNW 05:44:10 22° W 05:44:10 22° W visible
14 Feb 12.8 01:05:05 10° W 01:24:22 83° N 01:37:15 39° E visible
14 Feb 12.8 03:29:44 10° WNW 03:49:50 67° WSW 03:49:50 67° WSW visible
14 Feb 14.0 05:58:25 10° W 06:02:25 16° W 06:02:25 16° W visible
15 Feb 12.7 01:24:50 10° WNW 01:44:38 88° NNE 01:55:33 45° ESE visible
15 Feb 13.0 03:49:43 10° WNW 04:08:08 56° WSW 04:08:08 56° WSW visible
15 Feb 14.2 06:20:15 10° W 06:20:42 11° W 06:20:42 11° W visible
15 Feb 12.7 23:21:38 10° W 23:36:45 79° N 00:00:25 10° E visible
16 Feb 12.7 01:44:35 10° WNW 02:04:46 86° SSW 02:13:54 51° ESE visible
16 Feb 13.2 04:09:52 10° WNW 04:26:29 46° WSW 04:26:29 46° WSW visible
16 Feb 12.7 23:41:16 10° W 23:56:57 80° N 00:19:43 12° E visible
17 Feb 12.8 02:04:19 10° WNW 02:24:46 79° SSW 02:32:18 56° SE visible
17 Feb 13.4 04:30:15 10° WNW 04:44:54 37° WSW 04:44:54 37° WSW visible
18 Feb 12.7 00:00:54 10° W 00:17:09 83° N 00:38:11 16° E visible
18 Feb 12.8 02:24:05 10° WNW 02:44:38 70° SSW 02:50:47 57° SSE visible
18 Feb 13.6 04:51:04 10° W 05:03:23 29° WSW 05:03:23 29° WSW visible
19 Feb 12.7 00:20:31 10° WNW 00:37:17 87° NNE 00:56:45 20° ESE visible
19 Feb 12.9 02:43:55 10° WNW 03:04:21 61° SSW 03:09:22 55° S visible
19 Feb 13.9 05:12:32 10° W 05:21:58 22° WSW 05:21:58 22° WSW visible
